Japanese version Home page |
Updated on May 27, 2001 |
Profile
|
Orbital ElementsImproved orbital elements by K. Muraoka, from 21 observations 2001 Mar. 20 to Apr. 25, m.e. = +/- 0".57. T = 2001 Jan. 27.0136 TT Peri. = 224.1205 Node = 329.6520 (2000.0) Incl. = 8.4026 q = 2.390401 AU e = 0.606393 a = 6.073062 AU n = 0.0658556 P = 14.97 years
|
Finding Charts
|
Magnitudes Graphm1 = 12.5 + 5 log d + 10.0 log r
|
The orbital elements are calculated by Kenji Muraoka.
|